Location: Novokuznetsk
(53.7500°N, 87.1000°E)
Time: 09:33:43
(UTC+06:00)

ISS - Visible Passes

Search period start: 26 September 2022 00:00
Search period end: 06 October 2022 00:00
Orbit: 414 x 417 km, 51.6° (Epoch: 25 September)

Date Brightness Start Highest point End Pass type
(mag) Time Alt. Az. Time Alt. Az. Time Alt. Az.
26 Sep -3.5 19:07:17 10° W 19:10:36 59° S 19:12:52 19° ESE visible
26 Sep -1.7 20:44:01 10° W 20:45:44 23° WSW 20:45:44 23° WSW visible
27 Sep -3.0 19:55:19 10° W 19:58:29 39° SSW 19:58:54 37° S visible
28 Sep -3.2 19:06:37 10° W 19:09:53 48° SSW 19:12:03 18° SE visible
28 Sep -1.2 20:43:43 10° W 20:44:56 16° WSW 20:44:56 16° WSW visible
29 Sep -2.1 19:54:47 10° W 19:57:35 24° SSW 19:58:07 23° SSW visible
30 Sep -2.4 19:05:57 10° W 19:09:00 32° SSW 19:11:20 15° SE visible
01 Oct -2.7 18:17:11 10° W 18:20:22 40° SSW 18:23:33 10° SE visible
01 Oct -1.3 19:54:39 10° WSW 19:56:28 14° SW 19:57:28 13° SSW visible
02 Oct -1.5 19:05:27 10° W 19:07:56 19° SSW 19:10:24 10° SSE visible
03 Oct -1.8 18:16:29 10° W 18:19:19 26° SSW 18:22:11 10° SSE visible
04 Oct -0.7 19:06:11 10° SW 19:06:38 10° SW 19:07:08 10° SSW visible
05 Oct -1.0 18:16:07 10° WSW 18:18:06 15° SW 18:20:04 10° S visible
